TIANHUI 1-02            
1 38256U 12020A   19265.79040315  .00000470  00000-0  22696-4 0  9991
2 38256  97.3856  28.1399 0014766 194.6641 323.4248 15.23398429410367
TIANHUI 1-02 DEB        
1 38269U 12020B   19265.49103913  .00005881  00000-0  19715-3 0  9994
2 38269  97.2226 280.3048 0071746 328.6842  31.0134 15.28795354404583
TIANHUI 1-02 DEB        
1 38270U 12020C   19265.06052932  .00002679  00000-0  14474-3 0  9992
2 38270  97.2970 211.1726 0112809 101.9714 259.4188 15.10148091401585